This demonstration page uses our WeatherBlox Daily Observations layout. Learn more.

Left ArrowRight Arrow

39.51506, -84.39828

Hourly Observations for February 17, 2018

Temp ( °F °C ) Dew Point ( °F °C ) Humidity (%) Winds ( mph kmh ) Pressure ( in mb ) Visibility ( mi km ) Precip ( " mm )
12:15 am 00:15 Cloudy 32 0.2 25 -4 74 74 Calm 30.33 1027 10 16 0.00 0.00
12:35 am 00:35 Cloudy 32 0.2 25 -4 74 74 NE 3 6 30.33 1027 10 16 0.00 0.00
12:55 am 00:55 Cloudy 32 -0.1 26 -3.6 78 78 Calm 30.33 1027 10 16 0.00 0.00
1:15 am 01:15 Cloudy 32 -0.2 26 -3.3 80 80 Calm 30.33 1027 10 16 0.00 0.00
1:35 am 01:35 Cloudy 32 -0.2 26 -3.5 79 79 Calm 30.33 1027 10 16 0.00 0.00
1:55 am 01:55 Cloudy 32 -0.2 27 -2.9 82 82 Calm 30.33 1027 10 16 0.00 0.00
2:15 am 02:15 Cloudy 32 -0.1 26 -3.1 80 80 Calm 30.33 1027 10 16 0.00 0.00
2:35 am 02:35 Cloudy 32 -0.1 27 -2.9 82 82 N 3 6 30.33 1027 10 16 0.00 0.00
2:55 am 02:55 Cloudy 32 -0.1 27 -2.9 82 82 NNE 3 6 30.30 1026 10 16 0.00 0.00
3:15 am 03:15 Cloudy 32 0 27 -3 80 80 Calm 30.30 1026 10 16 0.00 0.00
3:35 am 03:35 Cloudy 31 -0.4 26 -3.2 82 82 Calm 30.30 1026 10 16 0.00 0.00
3:55 am 03:55 Cloudy 31 -0.4 27 -3 83 83 NE 3 6 30.30 1026 10 16 0.00 0.00
4:15 am 04:15 Cloudy 31 -0.3 27 -3 82 82 Calm 30.27 1025 10 16 0.00 0.00
4:35 am 04:35 Cloudy 31 -0.4 27 -2.8 84 84 Calm 30.27 1025 10 16 0.00 0.00
4:55 am 04:55 Cloudy 31 -0.6 27 -3 84 84 N 5 7 30.27 1025 10 16 0.00 0.00
5:15 am 05:15 Mostly Cloudy 30 -1 26 -3.1 86 86 NNE 3 6 30.27 1025 10 16 0.00 0.00
5:35 am 05:35 Cloudy 31 -0.8 27 -2.9 86 86 N 3 6 30.27 1025 10 16 0.00 0.00
5:55 am 05:55 Cloudy 30 -0.9 27 -3 86 86 Calm 30.27 1025 10 16 0.00 0.00
6:15 am 06:15 Cloudy 31 -0.5 26 -3.2 82 82 Calm 30.27 1025 10 16 0.00 0.00
6:35 am 06:35 Cloudy 32 0.2 25 -3.8 75 75 SE 3 6 30.27 1025 10 16 0.00 0.00
6:55 am 06:55 Mostly Cloudy 33 0.4 25 -4 73 73 Calm 30.27 1025 10 16 0.00 0.00
7:15 am 07:15 Mostly Cloudy 33 0.5 25 -3.9 73 73 Calm 30.24 1024 10 16 0.00 0.00
7:35 am 07:35 Sunny 33 0.4 25 -3.8 74 74 E 3 6 30.24 1024 10 16 0.00 0.00
7:55 am 07:55 Sunny 33 0.3 26 -3.5 76 76 E 3 6 30.24 1024 10 16 0.00 0.00
8:15 am 08:15 Sunny 33 0.5 26 -3.5 75 75 Calm 30.24 1024 10 16 0.00 0.00
8:35 am 08:35 Sunny 33 0.4 28 -2.4 82 82 Calm 30.27 1025 10 16 0.00 0.00
8:55 am 08:55 Sunny 33 0.8 28 -2.5 79 79 Calm 30.24 1024 10 16 0.00 0.00
9:15 am 09:15 Sunny 33 0.8 26 -3.3 74 74 ENE 3 6 30.24 1024 10 16 0.00 0.00
9:35 am 09:35 Mostly Cloudy 34 0.9 27 -2.8 77 77 E 3 6 30.18 1022 10 16 0.00 0.00
9:55 am 09:55 Mostly Cloudy 35 1.6 27 -3 72 72 SE 5 7 30.18 1022 10 16 0.00 0.00
10:15 am 10:15 Partly Cloudy 35 1.8 26 -3.2 70 70 SE 6 9 30.15 1021 10 16 0.00 0.00
10:35 am 10:35 Cloudy 35 1.8 26 -3.3 69 69 Calm 30.18 1022 10 16 0.00 0.00
10:55 am 10:55 Cloudy 36 2 26 -3.1 69 69 SE 3 6 30.18 1022 10 16 0.00 0.00
11:15 am 11:15 Cloudy 35 1.9 28 -2.5 73 73 SSE 8 13 30.15 1021 10 16 0.00 0.00
11:35 am 11:35 Cloudy 36 2 28 -2.3 73 73 SSE 7 11 30.18 1022 10 16 0.00 0.00
11:55 am 11:55 Cloudy 36 2 28 -2.1 75 75 S 8 13 30.15 1021 10 16 0.00 0.00
12:15 pm 12:15 Cloudy 35 1.9 29 -1.7 77 77 S 8 13 30.15 1021 10 16 0.00 0.00
12:35 pm 12:35 Cloudy 34 1 31 -0.7 89 89 SSW 7 11 30.15 1021 1 2 0.00 0.00
12:55 pm 12:55 Cloudy 33 0.3 32 -0.2 96 96 SSW 5 7 30.12 1020 1 1 0.00 0.00
1:15 pm 13:15 Cloudy 32 0.2 32 -0.1 98 98 W 3 6 30.12 1020 1 1 0.01 0.25
1:35 pm 13:35 Cloudy 32 0.2 32 -0.1 98 98 Calm 30.09 1019 1 1 0.02 0.51
1:55 pm 13:55 Cloudy 32 0.2 32 0 99 99 Calm 30.06 1018 1 1 0.03 0.76
2:15 pm 14:15 Cloudy 32 0.2 32 0 99 99 Calm 30.06 1018 1 1 0.00 0.00
2:35 pm 14:35 Cloudy 33 0.6 33 0.4 99 99 Calm 30.06 1018 1 2 0.00 0.00
2:55 pm 14:55 Cloudy 33 0.4 32 0.1 98 98 Calm 30.06 1018 1 2 0.00 0.00
3:15 pm 15:15 Cloudy 33 0.5 32 0.2 98 98 Calm 30.03 1017 2 2 0.01 0.25
3:35 pm 15:35 Cloudy 33 0.7 33 0.3 97 97 Calm 30.03 1017 2 2 0.01 0.25
3:55 pm 15:55 Cloudy 34 1 33 0.5 97 97 SSW 3 6 30.03 1017 3 4 0.01 0.25
4:15 pm 16:15 Cloudy 34 1.3 33 0.7 96 96 Calm 30.06 1018 3 4 0.00 0.00
4:35 pm 16:35 Cloudy 35 1.5 33 0.8 95 95 SW 3 6 30.06 1018 3 4 0.00 0.00
4:55 pm 16:55 Cloudy 35 1.6 34 1 96 96 SW 6 9 30.06 1018 3 4 0.00 0.00
5:15 pm 17:15 Cloudy 35 1.6 34 1.2 97 97 WSW 6 9 30.06 1018 1 2 0.00 0.00
5:35 pm 17:35 Cloudy 35 1.4 34 1 97 97 SW 8 13 30.06 1018 1 2 0.00 0.00
5:55 pm 17:55 Cloudy 34 1.1 33 0.7 97 97 SW 7 11 30.06 1018 2 2 0.01 0.25
6:15 pm 18:15 Cloudy 34 1.2 33 0.8 97 97 SSW 6 9 30.06 1018 2 3 0.00 0.00
6:35 pm 18:35 Cloudy 34 1.2 33 0.8 97 97 SW 6 9 30.09 1019 3 5 0.00 0.00
6:55 pm 18:55 Cloudy 34 1.1 33 0.7 97 97 WSW 6 9 30.09 1019 3 5 0.00 0.00
7:15 pm 19:15 Cloudy 34 0.9 33 0.5 97 97 WSW 5 7 30.09 1019 3 5 0.00 0.00
7:35 pm 19:35 Cloudy 34 0.9 33 0.5 97 97 Calm 30.09 1019 4 6 0.01 0.25
7:55 pm 19:55 Cloudy 34 1.1 33 0.7 97 97 SW 8 13 30.09 1019 4 6 0.01 0.25
8:15 pm 20:15 Cloudy 34 1.3 34 0.9 97 97 SW 6 9 30.09 1019 5 8 0.00 0.00
8:35 pm 20:35 Cloudy 34 1.3 34 0.9 97 97 SW 10 17 30.09 1019 5 8 0.00 0.00
8:55 pm 20:55 Cloudy 35 1.4 34 1 97 97 SW 9 15 30.09 1019 3 5 0.00 0.00
9:15 pm 21:15 Cloudy 35 1.5 34 1.1 97 97 SW 8 13 30.09 1019 2 3 0.00 0.00
9:35 pm 21:35 Cloudy 35 1.7 34 1.3 97 97 WSW 10 17 30.12 1020 4 6 0.00 0.00
9:55 pm 21:55 Cloudy 36 2 34 1.2 95 95 WSW 10 17 30.12 1020 7 11 0.00 0.00
10:15 pm 22:15 Cloudy 36 2.4 34 1.1 91 91 W 13 20 30.15 1021 10 16 0.00 0.00
10:35 pm 22:35 Cloudy 37 2.6 34 1.2 91 91 W 10 17 30.15 1021 10 16 0.00 0.00
10:55 pm 22:55 Cloudy 37 2.6 34 1.1 90 90 W 10 17 30.15 1021 10 16 0.00 0.00
11:15 pm 23:15 Cloudy 37 2.6 34 1 89 89 W 8 13 30.15 1021 10 16 0.00 0.00
11:35 pm 23:35 Cloudy 36 2.2 33 0.8 91 91 W 10 17 30.18 1022 7 11 0.00 0.00
11:55 pm 23:55 Cloudy 36 2.1 33 0.7 91 91 W 6 9 30.18 1022 10 16 0.00 0.00

Powered by AerisWeather